User: anonymous   Login
Location: Devargunta
(16.7631°N, 80.9077°E)
Time: 04:54:16
(UTC+00:00)
Language:

COSMO-SKYMED 1 - Orbit

View from above orbital plane
View from above orbital plane
View from above satellite
View from above satellite

Ground track
Ground track

The orbit data is extracted from the following two-line orbital elements,

1 31598U 07023A   21112.74352852  .00000198  00000-0  31463-4 0  9990
2 31598  97.8902 297.4253 0001538  92.1623 267.9766 14.82157642750640
Epoch (UTC): 22 April 2021 17:50:40
Eccentricity: 0.0001538
inclination: 97.8902°
perigee height: 621 km
apogee height: 623 km
right ascension of ascending node: 297.4253°
argument of perigee: 92.1623°
revolutions per day: 14.82157642
mean anomaly at epoch: 267.9766°
orbit number at epoch: 75064

The dashed part of the orbit path shows where the satellite is in the earth's shadow,  

DLR